This demonstration page uses our WeatherBlox Daily Observations layout. Learn more.

38.89511, -77.03637

Hourly Observations for November 10, 2017

Temp ( °F °C ) Dew Point ( °F °C ) Humidity (%) Winds ( mph kmh ) Pressure ( in mb ) Visibility ( mi km ) Precip ( " mm )
12:52 am 00:52 Cloudy 49 9.4 48 8.9 97 97 W 5 7 30.03 1017 9 14.484096 0 0
1:52 am 01:52 Mostly Cloudy 47 8.3 46 7.8 97 97 SW 5 7 30.03 1017 10 16.09344 0 0
2:11 am 02:11 Partly Cloudy 46 7.8 46 7.8 100 100 WSW 5 7 30.06 1018 10 16.09344 0 0
2:52 am 02:52 Mostly Clear 46 7.8 46 7.8 100 100 SSW 6 9 30.03 1017 7 11.265408 0 0
3:52 am 03:52 Mostly Clear 45 7.2 44 6.7 97 97 N 7 11 30.03 1017 10 16.09344 0 0
4:52 am 04:52 Mostly Cloudy 49 9.4 38 3.3 66 66 W 8 13 30.06 1018 10 16.09344 0 0
5:52 am 05:52 Mostly Cloudy 47 8.3 39 3.9 74 74 NNW 12 19 30.09 1019 10 16.09344 0 0
6:52 am 06:52 Partly Cloudy 46 7.8 34 1.1 63 63 NNW 17 28 30.15 1021 10 16.09344 0 0
7:52 am 07:52 Partly Cloudy 44 6.7 29 -1.7 55 55 NNW 22 35 30.21 1023 10 16.09344 0 0
8:52 am 08:52 Partly Cloudy 44 6.7 25 -3.9 47 47 NNW 21 33 30.24 1024 10 16.09344 0 0
9:52 am 09:52 Mostly Cloudy 45 7.2 26 -3.3 48 48 N 17 28 30.27 1025 10 16.09344 0 0
10:52 am 10:52 Mostly Cloudy 45 7.2 24 -4.4 44 44 NNW 18 30 30.3 1026 10 16.09344 0 0
11:52 am 11:52 Mostly Cloudy 42 5.6 21 -6.1 43 43 NNW 12 19 30.33 1027 10 16.09344 0 0
12:52 pm 12:52 Partly Cloudy 43 6.1 22 -5.6 43 43 NNW 18 30 30.33 1027 10 16.09344 0 0
1:52 pm 13:52 Mostly Sunny 42 5.6 19 -7.2 40 40 N 20 31 30.33 1027 10 16.09344 0 0
2:52 pm 14:52 Mostly Sunny 42 5.6 17 -8.3 36 36 NNW 20 31 30.36 1028 10 16.09344 0 0
3:52 pm 15:52 Mostly Sunny 41 5 15 -9.4 35 35 NNW 23 37 30.36 1028 10 16.09344 0 0
4:52 pm 16:52 Partly Cloudy 39 3.9 14 -10 36 36 NNW 17 28 30.39 1029 10 16.09344 0 0
5:52 pm 17:52 Partly Cloudy 38 3.3 14 -10 37 37 N 14 22 30.45 1031 10 16.09344 0 0
6:52 pm 18:52 Clear 37 2.8 14 -10 39 39 N 17 28 30.48 1032 10 16.09344 0 0
7:52 pm 19:52 Clear 36 2.2 13 -10.6 39 39 N 20 31 30.5 1033 10 16.09344 0 0
8:52 pm 20:52 Clear 35 1.7 13 -10.6 40 40 N 10 17 30.53 1034 10 16.09344 0 0
9:52 pm 21:52 Clear 34 1.1 11 -11.7 38 38 N 15 24 30.53 1034 10 16.09344 0 0
10:52 pm 22:52 Clear 33 0.6 12 -11.1 42 42 N 16 26 30.56 1035 10 16.09344 0 0
11:52 pm 23:52 Mostly Clear 32 0 12 -11.1 43 43 N 16 26 30.56 1035 10 16.09344 0 0

Powered by AerisWeather